Location: LDNL
(36.4545°S, 141.6685°E)
Time: 20:43:12
(UTC+11:00)

Courier 1B Rocket - Pass Details

Date: 05 February 2023
Orbit: 920 x 1202 km, 28.2° (Epoch: 26 March)

Event Time Altitude Azimuth Distance (km) Brightness Sun altitude
Rises 07:57:04 0° 280° (W) 4,089 7.6 11.4°
Reaches altitude 10° 08:00:02 10° 285° (WNW) 3,137 7.1 12.0°
Maximum altitude 08:07:26 46° 355° (N) 1,572 6.2 13.5°
Drops below altitude 10° 08:14:44 10° 65° (ENE) 3,087 8.7 14.9°
Sets 08:17:37 0° 71° (ENE) 4,018 9.4 15.5°
